Content
SEND FEEDBACK

Daily
Averages
Monthly
Summary
United Kingdom

ASHINGTON, ENGLAND


Home > Europe > United Kingdom > England
Elevation: 137 feet     Latitude: 55 18N     Longitude: 001 38W

WEATHER
 
SELECT A DAY
Number of Records: 284,977;   Date Range: 7/1/96 - 7/20/14
 
SHARE

PRINT THIS DATA

[ ← Previous Day ]
WEATHER ALMANAC - JUNE 7, 2014
[ Next Day → ]
[ °C ]   °F
Weather ElementAverageHighLow
Temperature54.4 °F60.8 °F (8:50 am)48.2 °F (1:50 am)
Dewpoint51 °F55.4 °F (5:20 pm)44.6 °F (1:50 am)
Humidity89 %100 % (2:50 pm)72 % (7:20 am)
Barometer29.90 in29.98 in (12:50 am)29.83 in (4:50 pm)
Wind Speed6.7 mph12.7 mph (12:20 pm)
Weather ElementAverage
Visibility4.4 mi
Wind DirectionESE (118.9 °)

Weather ElementTotal
Precipitation---
Heating Degree Days10.5 (Base 65)
Growing Degree Days4.5 (Base 50)
Averaged from 45 records on June 7, 2014
WEATHER CONDITIONS BREAKOUT
WIND DIRECTION BREAKOUT
WEATHER BY HOUR - JUNE 7, 2014
[ °C ]   °F
Local TimeTemperatureDewpointHumidityBarometerVisibilityWind DirectionWind SpeedGust SpeedPrecipitationEventsConditions
12:50 AM51.8 °F46.4 °F82 %29.98 inESE (120°)2.3 mphClear
1:20 AM50.0 °F48.2 °F94 %29.98 inESE (110°)2.3 mphClear
1:50 AM48.2 °F44.6 °F87 %29.95 inENE (60°)3.5 mphClear
2:20 AM48.2 °F46.4 °F93 %29.95 inENE (70°)2.3 mphClear
2:50 AM48.2 °F46.4 °F93 %29.95 inEast (90°)2.3 mphClear
3:20 AM48.2 °F46.4 °F93 %29.95 inEast (80°)2.3 mphClear
3:50 AM50.0 °F48.2 °F94 %29.92 inVariable2.3 mphClear
4:20 AM51.8 °F48.2 °F88 %29.95 inEast (100°)4.6 mphClear
5:20 AM51.8 °F50.0 °F94 %29.92 inEast (90°)3.5 mphClear
5:50 AM51.8 °F50.0 °F94 %29.92 inESE (110°)5.8 mphClear
6:20 AM55.4 °F51.8 °F88 %29.92 inVariable5.8 mphClear
6:50 AM55.4 °F50.0 °F82 %29.92 inSE (130°)4.6 mphClear
7:20 AM57.2 °F48.2 °F72 %29.92 inEast (100°)5.8 mphClear
7:50 AM57.2 °F50.0 °F77 %29.92 inESE (110°)6.9 mphClear
8:20 AM59.0 °F51.8 °F77 %29.92 inESE (120°)8.1 mphClear
8:50 AM60.8 °F51.8 °F72 %29.92 inESE (110°)9.2 mphClear
9:20 AM60.8 °F51.8 °F72 %29.92 inESE (110°)9.2 mphClear
9:50 AM59.0 °F50.0 °F72 %29.92 inESE (120°)8.1 mphClear
10:20 AM59.0 °F50.0 °F72 %29.92 inESE (110°)10.4 mphClear
10:50 AM59.0 °F50.0 °F72 %29.92 inVariable10.4 mphClear
11:20 AM59.0 °F50.0 °F72 %29.92 in6.2 miVariable10.4 mphPartly Cloudy
11:50 AM59.0 °F50.0 °F72 %29.89 in6.2 miESE (120°)9.2 mphPartly Cloudy
12:20 PM57.2 °F51.8 °F82 %29.89 in6.2 miEast (100°)12.7 mphRainLight Rain Showers
12:50 PM55.4 °F51.8 °F88 %29.89 in6.2 miEast (100°)10.4 mphRainLight Rain Showers
1:20 PM57.2 °F51.8 °F82 %29.89 in6.2 miESE (120°)10.4 mphRainLight Rain Showers
1:50 PM55.4 °F53.6 °F94 %29.89 in6.2 miESE (110°)9.2 mphRainLight Rain
2:20 PM55.4 °F53.6 °F94 %29.89 in5.0 miESE (110°)10.4 mphRainRain
2:50 PM53.6 °F53.6 °F100 %29.86 in3.7 miESE (110°)10.4 mphRainRain
3:20 PM53.6 °F53.6 °F100 %29.86 in3.7 miESE (110°)11.5 mphRainRain
3:50 PM53.6 °F53.6 °F100 %29.86 in3.7 miESE (110°)9.2 mphRainRain
4:20 PM55.4 °F53.6 °F94 %29.86 in3.7 miESE (110°)8.1 mphRainRain
4:50 PM55.4 °F53.6 °F94 %29.83 in3.7 miESE (120°)4.6 mphRainRain
5:20 PM55.4 °F55.4 °F100 %29.83 in3.7 miESE (110°)4.6 mphRainLight Rain
5:50 PM55.4 °F53.6 °F94 %29.86 in0.6 miSE (130°)6.9 mphRainLight Rain
6:20 PM53.6 °F53.6 °F100 %29.83 in1.2 miSE (130°)5.8 mphRainLight Rain
6:50 PM55.4 °F53.6 °F94 %29.83 in1.6 miSE (130°)4.6 mphRainLight Rain
7:20 PM55.4 °F55.4 °F100 %29.86 in1.2 miVariable2.3 mphRainLight Rain
7:50 PM53.6 °F53.6 °F100 %29.86 in6.2 miWest (260°)10.4 mphRainLight Rain
8:20 PM55.4 °F53.6 °F94 %29.86 in6.2 miWest (270°)8.1 mphPartly Cloudy
8:50 PM53.6 °F53.6 °F100 %29.86 in6.2 miWest (260°)8.1 mphPartly Cloudy
9:20 PM53.6 °F51.8 °F94 %29.89 inWSW (240°)5.8 mphClear
9:50 PM51.8 °F51.8 °F100 %29.89 inSW (220°)5.8 mphClear
10:20 PM51.8 °F50.0 °F94 %29.92 inSW (220°)3.5 mphClear
10:50 PM50.0 °F48.2 °F94 %29.92 inSSW (210°)4.6 mphClear
11:20 PM48.2 °F48.2 °F100 %29.92 inSSW (210°)4.6 mphClear
Hourly data recorded from EGNT, located miles away from Ashington, England







STORIES FROM OUR PARTNERS